Weather History for KOFK - November, 2012

Change the Weather History Date:

Wednesday, November 7, 2012

  Actual Average Record
Temperature  
Mean Temperature 40 °F 41 °F  
Max Temperature 56 °F 52 °F 78 °F (1915)
Min Temperature 24 °F 30 °F -7 °F (1991)
Degree Days  
Heating Degree Days 25 24  
Month to date heating degree days 168 156  
Since 1 July heating degree days 810 741  
Cooling Degree Days 0 0  
Month to date cooling degree days 0 0  
Year to date cooling degree days 1373 915  
Moisture  
Dew Point 27 °F    
Average Humidity 62    
Maximum Humidity 88    
Minimum Humidity 35    
Precipitation  
Precipitation 0.00 in 0.05 in 0.60 in (1918)
Month to date precipitation 0.04 0.35  
Year to date precipitation 12.98 25.64  
Snow  
Snow 0.00 in 0.10 in - ()
Month to date snowfall 0.0 0.6  
Since 1 July snowfall T 1.4  
Snow Depth 0.00 in    
Sea Level Pressure  
Sea Level Pressure 30.09 in    
Wind  
Wind Speed 8 mph (South)    
Max Wind Speed 17 mph    
Max Gust Speed 24 mph    
Visibility 10 miles    
Events      
T = Trace of Precipitation, MM = Missing Value Source: NWS Daily Summary

Daily Weather History Graph

Daily Weather History Graph

Search for Another Location

Airport or City:

Trip Planner

Search our weather history database for the weather conditions in past years. The results will help you decide how hot, cold, wet, or windy it might be!

Date:

Astronomy

Nov. 07, 2012 Rise Set
Actual Time 7:10 AM CST 5:15 PM CST
Civil Twilight 6:40 AM CST 5:45 PM CST
Nautical Twilight 6:07 AM CST 6:18 PM CST
Astronomical Twilight 5:34 AM CST 6:51 PM CST
Moon No Moon Rise 1:31 PM CST (11/7)
Length of Visible Light 11h 04m
Length of Day
10h 05m
Last Quarter, 43% of the Moon is Illuminated
Nov 7
Last Quarter
Nov 13
New
Nov 20
First Quarter
Nov 28
Full
Dec 6
Last Quarter

Hourly Weather History & Observations

Time (CST) Temp. Windchill Dew Point Humidity Pressure Visibility Wind Dir Wind Speed Gust Speed Precip Events Conditions
12:56 AM 34.0 °F 27.2 °F 25.0 °F 70% 30.14 in 10.0 mi West 8.1 mph - N/A   Clear
1:56 AM 32.0 °F 24.2 °F 25.0 °F 75% 30.14 in 10.0 mi West 9.2 mph - N/A   Clear
2:56 AM 30.9 °F 22.8 °F 24.1 °F 76% 30.15 in 10.0 mi West 9.2 mph - N/A   Clear
3:56 AM 28.9 °F 23.9 °F 23.0 °F 78% 30.16 in 10.0 mi West 4.6 mph - N/A   Clear
4:56 AM 30.0 °F 24.1 °F 23.0 °F 75% 30.18 in 10.0 mi West 5.8 mph - N/A   Clear
5:56 AM 28.9 °F - 21.9 °F 75% 30.18 in 10.0 mi Calm Calm - N/A   Clear
6:56 AM 25.0 °F - 21.0 °F 85% 30.19 in 10.0 mi Calm Calm - N/A   Clear
7:56 AM 30.0 °F - 24.1 °F 79% 30.19 in 10.0 mi Calm Calm - N/A   Clear
8:56 AM 34.0 °F - 25.0 °F 70% 30.19 in 10.0 mi Calm Calm - N/A   Clear
9:56 AM 39.9 °F - 28.0 °F 63% 30.19 in 10.0 mi Calm Calm - N/A   Clear
10:56 AM 46.9 °F - 30.0 °F 52% 30.16 in 10.0 mi South 8.1 mph - N/A   Clear
11:56 AM 51.1 °F - 30.0 °F 44% 30.13 in 10.0 mi SSE 8.1 mph - N/A   Clear
12:56 PM 54.0 °F - 30.0 °F 40% 30.08 in 10.0 mi South 11.5 mph - N/A   Clear
1:56 PM 55.0 °F - 28.9 °F 37% 30.05 in 10.0 mi South 13.8 mph - N/A   Clear
2:56 PM 55.0 °F - 28.9 °F 37% 30.03 in 10.0 mi SSE 11.5 mph - N/A   Clear
3:56 PM 55.9 °F - 28.0 °F 34% 30.01 in 10.0 mi South 13.8 mph - N/A   Clear
4:56 PM 52.0 °F - 28.0 °F 40% 30.01 in 10.0 mi SSE 10.4 mph - N/A   Clear
5:56 PM 48.0 °F - 28.0 °F 46% 30.01 in 10.0 mi SSE 9.2 mph - N/A   Clear
6:56 PM 46.9 °F - 30.0 °F 52% 30.02 in 10.0 mi SE 11.5 mph - N/A   Clear
7:56 PM 46.0 °F 40.6 °F 28.9 °F 51% 30.01 in 10.0 mi SSE 11.5 mph - N/A   Clear
8:56 PM 44.1 °F 37.7 °F 28.9 °F 55% 30.00 in 10.0 mi SSE 12.7 mph - N/A   Clear
9:56 PM 44.1 °F 37.4 °F 28.9 °F 55% 30.00 in 10.0 mi SSE 13.8 mph - N/A   Clear
10:56 PM 43.0 °F 35.7 °F 28.9 °F 58% 29.96 in 10.0 mi SSE 15.0 mph 24.2 mph N/A   Clear
11:56 PM 43.0 °F 36.0 °F 28.9 °F 58% 29.95 in 10.0 mi SSE 13.8 mph - N/A   Clear